TimeCST,TemperatureF,Dew PointF,Humidity,Sea Level PressureIn,VisibilityMPH,Wind Direction,Wind SpeedMPH,Gust SpeedMPH,PrecipitationIn,Events,Conditions,WindDirDegrees,DateUTC
12:54 AM,43.0,37.9,82,29.99,10.0,West,8.1,-,N/A,,Clear,280,2013-11-18 06:54:00
1:54 AM,42.1,37.0,82,30.00,10.0,West,6.9,-,N/A,,Clear,280,2013-11-18 07:54:00
2:54 AM,39.9,36.0,86,30.01,10.0,West,6.9,-,N/A,,Clear,280,2013-11-18 08:54:00
3:54 AM,41.0,36.0,82,30.02,10.0,West,8.1,-,N/A,,Clear,270,2013-11-18 09:54:00
4:54 AM,41.0,35.1,79,30.04,10.0,West,9.2,-,N/A,,Clear,270,2013-11-18 10:54:00
5:54 AM,39.9,34.0,79,30.06,10.0,West,13.8,-,N/A,,Clear,280,2013-11-18 11:54:00
6:54 AM,37.9,33.1,83,30.09,10.0,West,11.5,-,N/A,,Clear,280,2013-11-18 12:54:00
7:54 AM,39.0,34.0,82,30.13,10.0,WSW,6.9,-,N/A,,Clear,250,2013-11-18 13:54:00
8:54 AM,41.0,34.0,76,30.17,10.0,West,11.5,-,N/A,,Clear,280,2013-11-18 14:54:00
9:54 AM,43.0,33.1,68,30.21,10.0,WNW,15.0,-,N/A,,Clear,290,2013-11-18 15:54:00
10:54 AM,46.0,33.1,61,30.22,10.0,WNW,18.4,-,N/A,,Clear,300,2013-11-18 16:54:00
11:54 AM,48.0,32.0,54,30.21,10.0,West,16.1,-,N/A,,Clear,280,2013-11-18 17:54:00
12:54 PM,50.0,30.9,48,30.20,10.0,WNW,16.1,-,N/A,,Clear,290,2013-11-18 18:54:00
1:54 PM,51.1,28.9,43,30.20,10.0,NW,17.3,-,N/A,,Clear,310,2013-11-18 19:54:00
2:54 PM,51.1,28.9,43,30.22,10.0,NW,12.7,-,N/A,,Clear,320,2013-11-18 20:54:00
3:54 PM,48.9,28.0,44,30.23,10.0,WNW,13.8,-,N/A,,Clear,300,2013-11-18 21:54:00
4:54 PM,44.1,28.9,55,30.25,10.0,NW,4.6,-,N/A,,Clear,320,2013-11-18 22:54:00
5:54 PM,42.1,28.0,58,30.26,10.0,NNW,6.9,-,N/A,,Clear,330,2013-11-18 23:54:00
6:54 PM,37.0,26.1,65,30.27,10.0,NNE,8.1,-,N/A,,Clear,30,2013-11-19 00:54:00
7:54 PM,39.9,26.1,58,30.29,10.0,NE,3.5,-,N/A,,Clear,40,2013-11-19 01:54:00
8:54 PM,36.0,26.1,67,30.29,10.0,Calm,Calm,-,N/A,,Clear,0,2013-11-19 02:54:00
9:54 PM,39.0,25.0,57,30.30,10.0,NNE,4.6,-,N/A,,Clear,20,2013-11-19 03:54:00
10:54 PM,36.0,25.0,64,30.30,10.0,North,3.5,-,N/A,,Clear,360,2013-11-19 04:54:00
11:54 PM,36.0,25.0,64,30.31,10.0,NE,3.5,-,N/A,,Clear,50,2013-11-19 05:54:00